Location: Peterborough
(44.3091°N, 78.3197°W)
Time: 00:55:02
(UTC-04:00)

Vanguard 1 Rocket - Pass Details

Date: 27 March 2023
Orbit: 655 x 4220 km, 34.3° (Epoch: 02 June)

Event Time Altitude Azimuth Distance (km) Brightness Sun altitude
Rises 22:31:19 0° 226° (SW) 8,413 12.4 -29.9°
Reaches altitude 10° 22:37:35 10° 222° (SW) 7,417 12.0 -30.7°
Maximum altitude 23:00:39 47° 158° (SSE) 4,204 10.2 -33.7°
Enters shadow 23:01:01 47° 156° (SSE) 4,181 10.2 -33.7°
